Lander, WY

9:05 AM MDT on May 25, 2018 (GMT -0600)
Hunt

Weather History for KLND - October, 2012

Change the Weather History Date:

Friday, October 19, 2012

  Actual Average Record
Temperature  
Mean Temperature 48 °F 45 °F  
Max Temperature 66 °F 57 °F 77 °F (1947)
Min Temperature 30 °F 32 °F 7 °F (1916)
Degree Days  
Heating Degree Days 17 20  
Month to date heating degree days 331 325  
Since 1 July heating degree days 418 584  
Cooling Degree Days 0 0  
Month to date cooling degree days 0 0  
Year to date cooling degree days 779 472  
Moisture  
Dew Point 21 °F    
Average Humidity 37    
Maximum Humidity 53    
Minimum Humidity 20    
Precipitation  
Precipitation T in 0.03 in 0.93 in (1924)
Month to date precipitation 0.19 0.84  
Year to date precipitation 5.22 10.77  
Snow  
Snow 0.00 in 0.30 in - ()
Month to date snowfall 2.9 5.4  
Since 1 July snowfall 2.9 8.1  
Since 1 September snowfall 2.9 8.1  
Snow Depth 0.00 in    
Sea Level Pressure  
Sea Level Pressure 29.91 in    
Wind  
Wind Speed 4 mph (SE)    
Max Wind Speed 8 mph    
Max Gust Speed -    
Visibility 10 miles    
Events Snow    
T = Trace of Precipitation, MM = Missing Value Source: NWS Daily Summary

Daily Weather History Graph

Daily Weather History Graph

Search for Another Location

Airport or City:

Astronomy

Oct. 19, 2012 Rise Set
Actual Time 7:33 AM MDT 6:25 PM MDT
Civil Twilight 7:04 AM MDT 6:53 PM MDT
Nautical Twilight 6:32 AM MDT 7:26 PM MDT
Astronomical Twilight 5:59 AM MDT 7:59 PM MDT
Moon 12:24 PM MDT (10/19) 10:02 PM MDT (10/19)
Length of Visible Light 11h 48m
Length of Day
10h 51m
Waxing Crescent, 24% of the Moon is Illuminated
Oct 19
Waxing Crescent
Oct 21
First Quarter
Oct 29
Full
Nov 6
Last Quarter
Nov 13
New

Hourly Weather History & Observations

Time (MDT) Temp. Windchill Dew Point Humidity Pressure Visibility Wind Dir Wind Speed Gust Speed Precip Events Conditions
12:53 AM 35.1 °F - 15.1 °F 44% 30.11 in 10.0 mi Calm Calm - 0.00 in Snow Light Snow
1:53 AM 37.0 °F 34.5 °F 15.1 °F 41% 30.08 in 10.0 mi WNW 3.5 mph - 0.00 in   Clear
2:53 AM 33.1 °F 30.0 °F 15.1 °F 48% 30.08 in 10.0 mi SSE 3.5 mph - 0.00 in   Clear
3:53 AM 36.0 °F 33.3 °F 14.0 °F 41% 30.05 in 10.0 mi SE 3.5 mph - N/A   Clear
4:53 AM 34.0 °F - 15.1 °F 46% 30.02 in 10.0 mi Calm Calm - 0.00 in Snow Light Snow
5:53 AM 30.9 °F 25.2 °F 16.0 °F 54% 30.03 in 10.0 mi NNW 5.8 mph - 0.00 in   Clear
6:53 AM 35.1 °F 30.1 °F 18.0 °F 50% 30.02 in 10.0 mi NW 5.8 mph - N/A   Clear
7:53 AM 37.0 °F 31.6 °F 19.0 °F 48% 30.01 in 10.0 mi West 6.9 mph - N/A   Clear
8:53 AM 34.0 °F 31.0 °F 18.0 °F 52% 30.02 in 10.0 mi SSE 3.5 mph - N/A   Clear
9:53 AM 45.0 °F 43.5 °F 21.9 °F 40% 29.97 in 10.0 mi WSW 3.5 mph - N/A   Clear
10:53 AM 54.0 °F - 24.1 °F 31% 29.93 in 10.0 mi East 6.9 mph - N/A   Clear
11:53 AM 57.9 °F - 23.0 °F 26% 29.90 in 10.0 mi ENE 4.6 mph - 0.00 in   Clear
12:53 PM 60.1 °F - 21.0 °F 22% 29.87 in 10.0 mi ENE 5.8 mph - 0.00 in   Clear
1:53 PM 63.0 °F - 21.9 °F 21% 29.83 in 10.0 mi Variable 3.5 mph - N/A   Clear
2:53 PM 63.0 °F - 21.9 °F 21% 29.83 in 10.0 mi Calm Calm - N/A   Clear
3:53 PM 62.1 °F - 25.0 °F 24% 29.81 in 10.0 mi Calm Calm - N/A   Clear
4:53 PM 64.0 °F - 23.0 °F 21% 29.79 in 10.0 mi SSW 5.8 mph - N/A   Clear
5:53 PM 63.0 °F - 24.1 °F 23% 29.81 in 10.0 mi WSW 3.5 mph - N/A   Clear
6:53 PM 61.0 °F - 23.0 °F 23% 29.81 in 10.0 mi East 3.5 mph - N/A   Scattered Clouds
7:53 PM 59.0 °F - 25.0 °F 27% 29.81 in 10.0 mi Variable 6.9 mph - N/A   Overcast
8:53 PM 59.0 °F - 27.0 °F 29% 29.81 in 10.0 mi West 8.1 mph - N/A   Overcast
9:53 PM 53.1 °F - 24.1 °F 32% 29.80 in 10.0 mi NE 3.5 mph - N/A   Mostly Cloudy
10:53 PM 51.1 °F - 24.1 °F 35% 29.77 in 10.0 mi East 4.6 mph - N/A   Clear
11:53 PM 48.9 °F - 25.0 °F 39% 29.75 in 10.0 mi SSE 4.6 mph - N/A   Clear